星链-34866 (STARLINK-34866)

导读 | 豆包AI

STARLINK-34866是美国SpaceX星链星座的卫星,于2025年8月14日发射入轨,属于Starlink Gen2组网卫星,旨在为全球提供低延迟、高速宽带互联网服务,尤其覆盖偏远、网络基础设施薄弱区域。该卫星运行在近地轨道,依托星链大规模星座部署,助力实现全球无缝网络覆盖,推动卫星互联网商业化应用落地。

基本信息
目录编号:
65189
目录名称:
STARLINK-34866
国际标识:
2025-175R
轨道中心:
EARTH
卫星名称:
星链-34866
卫星全名:
星链-34866 (STARLINK-34866)
卫星状态:
在轨 (已飞行212 天)
发射日期:
2025-08-14 UTC
国别 :
美国 (US)
星等 :
--
轨道信息
数据来源 国际轨道数据
星历时间: 2026-03-14T05:20:07+0800
15小时前
查看轨道信息
半长轴: 6927.629km
偏心率: 0.0002585
轨道倾角: 97.602°
近地点辐角 79.692°
升交点赤经 306.817°
平近点角 280.460°
近地点: 547.701km
远地点: 551.283km
周期: 95.639分钟
每日圈数: 15.056564
详细信息
固有亮度:
5
最大亮度:
2.5
卫星平台:
Starlink V1.0
覆盖范围:
全球
运营商:
太空探索技术公司
运营商所在国:
美国
制造商(研发单位):
太空探索技术公司
制造商所在国:
美国
使用方式:
暂无
卫星简介
Starlink 计划是 SpaceX 推出的全球卫星互联网项目,通过发射低轨道卫星,为全球尤其是偏远地区提供高速、低延迟的互联网服务。自 2019 年起,Starlink 已部署数千颗卫星,旨在缩小全球数字鸿沟,推动互联网普及。该项目还为军事、航空等行业提供通信支持,带来广泛经济效益。
2D轨道图
3D轨道图
轨道高度分析图
轨道倾角分析图
轨道综合分析图
查看轨道综合分析图